User: anonymous
Location: Oronoko Observatory
(41.9167°N, 86.3833°W)
Time: 01:00:23
(UTC-04:00)
Language:

PAYLOAD A - Orbit

View from above orbital plane
View from above orbital plane
View from above satellite
View from above satellite

Ground track
Ground track

The orbit data is extracted from the following two-line orbital elements,

1 27840U 03031A   14209.79225785  .00000029  00000-0  22222-4 0  6003
2 27840 098.2344 236.7087 0099351 057.6013 030.6866 14.38714664581697
Epoch (UTC): 28 July 2014 19:00:51
Eccentricity: 0.0099351
inclination: 98.2344°
perigee height: 692 km
apogee height: 833 km
right ascension of ascending node: 236.7087°
argument of perigee: 57.6013°
revolutions per day: 14.38714664
mean anomaly at epoch: 30.6866°
orbit number at epoch: 58169

The dashed part of the orbit path shows where the satellite is in the earth's shadow,  

DLR